| time (UTC) | temp C | wind direction | speed KPH | gust KPH | rain 1hr cm | rain 24hr cm | rain mn cm | humidity % | barometer mb |
| 20260906035537 | 21 | 0.0 | 0.0 | 0.00 | 2.31 | 2.31 | 100 | 1013.3 | |
| 20260906034515 | 21 | 0.0 | 0.0 | 0.00 | 2.31 | 2.31 | 100 | 1013.4 | |
| 20260906033516 | 21 | 0.0 | 0.0 | 0.00 | 2.31 | 2.31 | 100 | 1013.4 | |
| 20260906032516 | 21 | 0.0 | 0.0 | 0.00 | 2.31 | 2.31 | 100 | 1013.3 | |
| 20260906031515 | 21 | 0.0 | 0.0 | 0.00 | 2.31 | 2.31 | 100 | 1013.3 | |
| 20260906030515 | 21 | 0.0 | 0.0 | 0.00 | 2.31 | 2.31 | 100 | 1013.2 | |
| 20260906025516 | 21 | 0.0 | 0.0 | 0.00 | 2.31 | 2.31 | 100 | 1013.2 | |
| 20260906024516 | 21 | 0.0 | 0.0 | 0.00 | 2.31 | 2.31 | 100 | 1013.3 | |
| 20260906023515 | 22 | 0.0 | 0.0 | 0.00 | 2.31 | 2.31 | 100 | 1013.3 | |
| 20260906022516 | 22 | 0.0 | 0.0 | 0.00 | 2.31 | 2.31 | 99 | 1013.5 | |
| 20260906021515 | 22 | 0.0 | 0.0 | 0.00 | 2.31 | 2.31 | 99 | 1013.3 | |
| 20260906020515 | 22 | 0.0 | 0.0 | 0.00 | 2.31 | 2.31 | 99 | 1013.4 | |
| 20260906015516 | 22 | 0.0 | 0.0 | 0.00 | 2.31 | 2.31 | 99 | 1013.2 | |
| 20260906014515 | 22 | 0.0 | 0.0 | 0.00 | 2.31 | 2.31 | 99 | 1013.3 | |
| 20260906013516 | 22 | 0.0 | 0.0 | 0.00 | 2.31 | 2.31 | 99 | 1013.0 | |
| 20260906012515 | 22 | 0.0 | 0.0 | 0.00 | 2.31 | 2.31 | 99 | 1013.0 | |
| 20260906011515 | 22 | 0.0 | 0.0 | 0.00 | 2.31 | 2.31 | 99 | 1012.9 | |
| 20260906010536 | 23 | 0.0 | 0.0 | 0.00 | 2.31 | 2.31 | 99 | 1012.8 | |
| 20260906005515 | 23 | 0.0 | 0.0 | 0.00 | 2.31 | 2.31 | 99 | 1012.6 | |
| 20260906004537 | 23 | 0.0 | 1.6 | 0.00 | 2.31 | 2.31 | 99 | 1012.3 | |
| 20260906003515 | 23 | 0.0 | 0.0 | 0.00 | 2.31 | 2.31 | 99 | 1012.3 | |
| 20260906002535 | 23 | 0.0 | 0.0 | 0.00 | 2.31 | 2.31 | 99 | 1012.2 | |
| 20260906001515 | 23 | 0.0 | 0.0 | 0.00 | 2.31 | 2.31 | 98 | 1012.1 | |
| 20260906000515 | 23 | 0.0 | 0.0 | 0.00 | 2.31 | 2.31 | 98 | 1011.8 | |
| 20260905235515 | 23 | 0.0 | 0.0 | 0.00 | 2.31 | 2.31 | 98 | 1011.7 | |
| 20260905234515 | 23 | 0.0 | 0.0 | 0.00 | 2.31 | 2.31 | 97 | 1011.7 | |
| 20260905233516 | 23 | 0.0 | 0.0 | 0.00 | 2.31 | 2.31 | 97 | 1011.6 | |
| 20260905232515 | 23 | 0.0 | 0.0 | 0.00 | 2.31 | 2.31 | 97 | 1011.5 | |
| 20260905231515 | 24 | 0.0 | 0.0 | 0.00 | 2.31 | 2.31 | 96 | 1011.3 | |
| 20260905230515 | 24 | 0.0 | 0.0 | 0.00 | 2.34 | 2.31 | 95 | 1011.6 | |
| 20260905225615 | 25 | 0.0 | 0.0 | 0.00 | 2.34 | 2.31 | 95 | 1012.0 | |
| 20260905224516 | 25 | 0.0 | 0.0 | 0.00 | 2.34 | 2.31 | 92 | 1012.1 | |
| 20260905223515 | 26 | 0.0 | 0.0 | 0.00 | 2.39 | 2.31 | 89 | 1011.9 | |
| 20260905222536 | 26 | 0.0 | 0.0 | 0.00 | 2.39 | 2.31 | 92 | 1012.0 | |
| 20260905221515 | 26 | 0.0 | 0.0 | 0.00 | 2.39 | 2.31 | 92 | 1011.9 | |
| 20260905220515 | 26 | 0.0 | 0.0 | 0.00 | 2.62 | 2.31 | 91 | 1011.7 | |
| 20260905215535 | 26 | 0.0 | 0.0 | 0.00 | 2.95 | 2.31 | 90 | 1011.5 | |
| 20260905214515 | 26 | 0.0 | 0.0 | 0.00 | 3.17 | 2.31 | 87 | 1011.6 | |
| 20260905213515 | 26 | 0.0 | 3.2 | 0.00 | 3.20 | 2.31 | 86 | 1011.5 | |
| 20260905212515 | 26 | 0.0 | 1.6 | 0.00 | 3.20 | 2.31 | 88 | 1011.6 | |
| 20260905211536 | 27 | 0.0 | 1.6 | 0.00 | 3.30 | 2.31 | 91 | 1011.6 | |
| 20260905210515 | 26 | 0.0 | 0.0 | 0.00 | 3.30 | 2.31 | 92 | 1011.8 | |
| 20260905205515 | 25 | 0.0 | 1.6 | 0.00 | 3.30 | 2.31 | 95 | 1011.8 | |
| 20260905204515 | 25 | 0.0 | 3.2 | 0.00 | 3.30 | 2.31 | 96 | 1011.8 | |
| 20260905203515 | 25 | 0.0 | 0.0 | 0.00 | 3.30 | 2.31 | 99 | 1011.8 | |
| 20260905202515 | 24 | 0.0 | 1.6 | 0.00 | 3.30 | 2.31 | 100 | 1011.8 | |
| 20260905201515 | 23 | 0.0 | 1.6 | 0.00 | 3.30 | 2.31 | 100 | 1011.6 | |
| 20260905200515 | 23 | 0.0 | 1.6 | 0.00 | 3.30 | 2.31 | 100 | 1011.4 | |
| 20260905195515 | 23 | 0.0 | 0.0 | 0.00 | 3.30 | 2.31 | 100 | 1011.6 | |
| 20260905194515 | 23 | 0.0 | 1.6 | 0.00 | 3.30 | 2.31 | 100 | 1011.7 | |
| 20260905193516 | 23 | 0.0 | 1.6 | 0.03 | 3.30 | 2.31 | 100 | 1012.1 | |
| 20260905192535 | 23 | 0.0 | 1.6 | 0.03 | 3.30 | 2.31 | 100 | 1012.4 | |
| 20260905191515 | 23 | 0.0 | 1.6 | 0.03 | 3.30 | 2.31 | 100 | 1012.6 | |
| 20260905190515 | 23 | 0.0 | 0.0 | 0.03 | 3.30 | 2.31 | 100 | 1012.6 | |
| 20260905185515 | 23 | 0.0 | 0.0 | 0.03 | 3.30 | 2.31 | 100 | 1013.0 | |
| 20260905184515 | 23 | 0.0 | 0.0 | 0.03 | 3.30 | 2.31 | 100 | 1012.9 | |
| 20260905183515 | 23 | 0.0 | 0.0 | 0.00 | 3.28 | 2.29 | 100 | 1012.6 | |
| 20260905182515 | 22 | 0.0 | 0.0 | 0.00 | 3.28 | 2.29 | 100 | 1012.7 | |
| 20260905181517 | 22 | 0.0 | 1.6 | 0.00 | 3.28 | 2.29 | 100 | 1012.5 | |
| 20260905180517 | 22 | 90 | 3.2 | 9.7 | 0.00 | 3.28 | 2.29 | 100 | 1012.4 |
| 20260905175517 | 23 | 113 | 1.6 | 8.0 | 0.00 | 3.28 | 2.29 | 100 | 1012.7 |
| 20260905174517 | 22 | 0.0 | 3.2 | 0.03 | 3.28 | 2.29 | 100 | 1012.6 | |
| 20260905173557 | 22 | 0.0 | 1.6 | 0.08 | 3.28 | 2.29 | 100 | 1013.0 | |
| 20260905172517 | 22 | 0.0 | 0.0 | 1.17 | 3.28 | 2.29 | 100 | 1012.9 | |
| 20260905171537 | 21 | 0.0 | 0.0 | 2.16 | 3.28 | 2.29 | 100 | 1012.9 | |
| 20260905170517 | 21 | 0.0 | 0.0 | 2.26 | 3.28 | 2.29 | 99 | 1013.4 | |
| 20260905165517 | 21 | 0.0 | 1.6 | 2.26 | 3.28 | 2.29 | 99 | 1014.1 | |
| 20260905164517 | 21 | 0.0 | 3.2 | 2.24 | 3.25 | 2.26 | 98 | 1014.4 | |
| 20260905163517 | 22 | 45 | 1.6 | 6.4 | 2.18 | 3.20 | 2.21 | 96 | 1014.7 |
| 20260905162517 | 24 | 45 | 4.8 | 17.7 | 1.09 | 2.11 | 1.12 | 94 | 1014.7 |
| 20260905161517 | 25 | 0.0 | 1.6 | 0.10 | 1.12 | 0.13 | 93 | 1014.2 | |
| 20260905160516 | 26 | 0.0 | 1.6 | 0.00 | 1.02 | 0.03 | 92 | 1013.9 | |
| 20260905155517 | 26 | 0.0 | 3.2 | 0.00 | 1.02 | 0.03 | 91 | 1013.4 | |
| 20260905154517 | 26 | 0.0 | 3.2 | 0.00 | 1.02 | 0.03 | 93 | 1013.3 | |
| 20260905153517 | 26 | 0.0 | 1.6 | 0.00 | 1.02 | 0.03 | 92 | 1013.3 | |
| 20260905152517 | 26 | 0.0 | 1.6 | 0.00 | 1.02 | 0.03 | 93 | 1013.3 | |
| 20260905151517 | 26 | 0.0 | 1.6 | 0.00 | 1.02 | 0.03 | 94 | 1013.5 | |
| 20260905150517 | 26 | 0.0 | 1.6 | 0.00 | 1.02 | 0.03 | 95 | 1013.5 | |
| 20260905145517 | 25 | 0.0 | 1.6 | 0.00 | 1.02 | 0.03 | 98 | 1013.5 | |
| 20260905144516 | 26 | 45 | 1.6 | 3.2 | 0.00 | 1.02 | 0.03 | 100 | 1013.4 |
| 20260905143537 | 26 | 0 | 1.6 | 3.2 | 0.00 | 1.02 | 0.03 | 100 | 1013.3 |
| 20260905142517 | 25 | 45 | 1.6 | 3.2 | 0.00 | 1.02 | 0.03 | 100 | 1013.3 |
| 20260905141517 | 25 | 0.0 | 3.2 | 0.00 | 1.02 | 0.03 | 100 | 1013.2 | |
| 20260905140517 | 25 | 0.0 | 1.6 | 0.00 | 1.02 | 0.03 | 100 | 1013.0 | |
| 20260905135517 | 24 | 45 | 1.6 | 3.2 | 0.00 | 1.02 | 0.03 | 100 | 1012.8 |
| 20260905134557 | 24 | 0.0 | 1.6 | 0.00 | 1.02 | 0.03 | 100 | 1012.9 | |
| 20260905133517 | 24 | 0.0 | 1.6 | 0.00 | 1.02 | 0.03 | 100 | 1012.8 | |
| 20260905132517 | 24 | 0.0 | 0.0 | 0.00 | 1.02 | 0.03 | 100 | 1012.7 | |
| 20260905131517 | 24 | 0.0 | 0.0 | 0.00 | 1.02 | 0.03 | 100 | 1012.8 | |
| 20260905130517 | 23 | 0.0 | 0.0 | 0.00 | 1.02 | 0.03 | 100 | 1012.8 | |
| 20260905125517 | 23 | 0.0 | 0.0 | 0.00 | 1.02 | 0.03 | 100 | 1012.5 | |
| 20260905124537 | 22 | 0.0 | 0.0 | 0.00 | 1.02 | 0.03 | 100 | 1012.5 | |
| 20260905123516 | 22 | 0.0 | 0.0 | 0.00 | 1.02 | 0.03 | 100 | 1012.7 | |
| 20260905122517 | 21 | 0.0 | 0.0 | 0.00 | 1.02 | 0.03 | 100 | 1012.7 | |
| 20260905121517 | 21 | 0.0 | 0.0 | 0.00 | 1.02 | 0.03 | 100 | 1012.7 | |
| 20260905120516 | 20 | 0.0 | 0.0 | 0.00 | 1.02 | 0.03 | 100 | 1012.6 | |
| 20260905115517 | 20 | 0.0 | 0.0 | 0.00 | 1.02 | 0.03 | 100 | 1012.5 | |
| 20260905114516 | 20 | 0.0 | 0.0 | 0.00 | 1.02 | 0.03 | 100 | 1012.5 | |
| 20260905113518 | 20 | 0.0 | 0.0 | 0.00 | 1.02 | 0.03 | 100 | 1012.5 | |
| 20260905112516 | 19 | 0.0 | 0.0 | 0.00 | 1.02 | 0.03 | 100 | 1012.5 | |
| 20260905111516 | 19 | 0.0 | 0.0 | 0.00 | 1.02 | 0.03 | 100 | 1012.4 | |
| 20260905110517 | 20 | 0.0 | 0.0 | 0.00 | 1.02 | 0.03 | 100 | 1012.3 | |
| 20260905105536 | 20 | 0.0 | 0.0 | 0.00 | 1.02 | 0.03 | 100 | 1012.3 | |
| 20260905104537 | 19 | 0.0 | 0.0 | 0.00 | 1.02 | 0.03 | 100 | 1012.1 | |
| 20260905103537 | 19 | 0.0 | 0.0 | 0.00 | 1.02 | 0.03 | 100 | 1012.0 | |
| 20260905102519 | 20 | 0.0 | 0.0 | 0.00 | 1.02 | 0.03 | 100 | 1012.1 | |
| 20260905101517 | 20 | 0.0 | 0.0 | 0.00 | 1.02 | 0.03 | 100 | 1012.0 | |
| 20260905100517 | 20 | 0.0 | 0.0 | 0.03 | 1.02 | 0.03 | 100 | 1011.8 | |
| 20260905095517 | 20 | 0.0 | 0.0 | 0.03 | 1.02 | 0.03 | 100 | 1011.8 | |
| 20260905094516 | 20 | 0.0 | 0.0 | 0.03 | 1.02 | 0.03 | 100 | 1011.8 | |
| 20260905093517 | 20 | 0.0 | 0.0 | 0.03 | 1.02 | 0.03 | 100 | 1011.8 | |
| 20260905092516 | 20 | 0.0 | 0.0 | 0.03 | 1.02 | 0.03 | 100 | 1011.7 | |
| 20260905091536 | 20 | 0.0 | 0.0 | 0.03 | 1.02 | 0.03 | 100 | 1011.7 | |
| 20260905090516 | 20 | 0.0 | 0.0 | 0.00 | 0.99 | 0.00 | 100 | 1011.5 | |
| 20260905085516 | 20 | 0.0 | 0.0 | 0.00 | 0.99 | 0.00 | 100 | 1011.6 | |
| 20260905084516 | 20 | 0.0 | 0.0 | 0.00 | 0.99 | 0.00 | 100 | 1011.6 | |
| 20260905083516 | 20 | 0.0 | 0.0 | 0.00 | 0.99 | 0.00 | 100 | 1011.7 | |
| 20260905082517 | 20 | 0.0 | 0.0 | 0.00 | 0.99 | 0.00 | 100 | 1011.8 | |
| 20260905081516 | 20 | 0.0 | 0.0 | 0.00 | 0.99 | 0.00 | 100 | 1011.9 | |
| 20260905080516 | 21 | 0.0 | 0.0 | 0.00 | 0.99 | 0.00 | 100 | 1012.0 | |
| 20260905075516 | 21 | 0.0 | 0.0 | 0.00 | 0.99 | 0.00 | 100 | 1012.1 | |
| 20260905074517 | 21 | 0.0 | 0.0 | 0.00 | 0.99 | 0.00 | 100 | 1012.3 | |
| 20260905073517 | 21 | 0.0 | 0.0 | 0.00 | 0.99 | 0.00 | 100 | 1012.4 | |
| 20260905072536 | 21 | 0.0 | 0.0 | 0.00 | 0.99 | 0.00 | 100 | 1012.5 | |
| 20260905071536 | 21 | 0.0 | 0.0 | 0.00 | 0.99 | 0.00 | 100 | 1012.5 | |
| 20260905070516 | 21 | 0.0 | 0.0 | 0.00 | 0.99 | 0.00 | 100 | 1012.5 | |
| 20260905065516 | 21 | 0.0 | 0.0 | 0.00 | 0.99 | 0.00 | 100 | 1012.5 | |
| 20260905064516 | 21 | 0.0 | 0.0 | 0.00 | 0.99 | 0.00 | 100 | 1012.7 | |
| 20260905063516 | 21 | 0.0 | 0.0 | 0.00 | 0.99 | 0.00 | 100 | 1012.7 | |
| 20260905062517 | 21 | 0.0 | 0.0 | 0.00 | 0.99 | 0.00 | 100 | 1012.7 | |
| 20260905061516 | 21 | 0.0 | 0.0 | 0.00 | 0.99 | 0.00 | 100 | 1012.9 | |
| 20260905060516 | 21 | 0.0 | 1.6 | 0.00 | 0.99 | 0.00 | 100 | 1013.0 | |
| 20260905055516 | 21 | 0.0 | 0.0 | 0.00 | 0.99 | 0.00 | 100 | 1013.2 | |
| 20260905054516 | 21 | 0.0 | 0.0 | 0.00 | 0.99 | 0.00 | 100 | 1013.4 | |
| 20260905053516 | 21 | 0.0 | 0.0 | 0.00 | 0.99 | 0.00 | 100 | 1013.6 | |
| 20260905052516 | 21 | 0.0 | 0.0 | 0.00 | 0.99 | 0.00 | 100 | 1013.7 | |
| 20260905051536 | 21 | 0.0 | 1.6 | 0.00 | 0.99 | 0.00 | 100 | 1013.8 | |
| 20260905050516 | 21 | 0.0 | 0.0 | 0.00 | 0.99 | 0.00 | 100 | 1014.1 | |
| 20260905045517 | 21 | 0.0 | 0.0 | 0.00 | 0.99 | 0.00 | 100 | 1014.4 | |
| 20260905044517 | 21 | 0.0 | 0.0 | 0.00 | 0.99 | 0.00 | 100 | 1014.4 | |
| 20260905043516 | 21 | 0.0 | 0.0 | 0.00 | 0.99 | 0.00 | 100 | 1014.5 | |
| 20260905042516 | 21 | 0.0 | 0.0 | 0.00 | 0.99 | 0.00 | 100 | 1014.6 | |
| 20260905041516 | 21 | 0.0 | 1.6 | 0.00 | 0.99 | 0.00 | 100 | 1014.6 | |
| 20260905040516 | 21 | 0.0 | 0.0 | 0.00 | 0.99 | 0.00 | 100 | 1014.6 |